Regional Weather Roundup
Issued by NWS Newport/Morehead, NC

Current Version | Previous Version | Graphics & Text | Print | Product List | Glossary Off
Versions: 1 2 3 4 5 6 7 8 9 10 11 12 13 14 15 16 17 18 19 20 21 22 23 24 25 26 27 28 29 30 31 32 33 34 35 36 37 38 39 40 41 42 43 44 45 46 47 48 49 50

000
ASUS42 KMHX 160225
RWRMHX
WEATHER ROUNDUP FOR EASTERN NORTH CAROLINA
NATIONAL WEATHER SERVICE NEWPORT/MOREHEAD CITY NC
900 PM EST MON JAN 15 2018

NOTE: "FAIR" INDICATES FEW OR NO CLOUDS BELOW 12,000 FEET
WITH NO SIGNIFICANT WEATHER AND/OR OBSTRUCTIONS TO VISIBILITY

NCZ015>017-031-032-045>047-102-103-160300-
NORTH COAST

CITY           SKY/WX    TMP DP  RH WIND       PRES   REMARKS
EDENTON        FAIR      32  29  89 N5        30.48R
ELIZABETH CITY FAIR      32  31  96 NW12      30.46R
KITTY HAWK     CLOUDY    34  34 100 MISG      30.43R
MANTEO         CLOUDY    33  32  94 N13       30.45R

$$

NCZ045>047-081-094-103-104-160300-
CENTRAL COAST

CITY           SKY/WX    TMP DP  RH WIND       PRES   REMARKS
FRISCO         NOT AVBL

$$

NCZ095-097-098-100-101-160300-
SOUTHERN COAST

CITY           SKY/WX    TMP DP  RH WIND       PRES   REMARKS
BEAUFORT       FAIR      37  27  67 N9        30.45R
CEDAR ISLAND   NOT AVBL
JACKSONVILLE   FAIR      33  27  78 NW5       30.47R
PINEY ISLAND   NOT AVBL
WILMINGTON     FAIR      34  27  75 N5        30.46R


$$

NCZ011>013-027>030-043-044-078>080-089-090>093-098-160300-
COASTAL PLAIN

CITY           SKY/WX    TMP DP  RH WIND       PRES   REMARKS
AHOSKIE        FAIR      26  22  87 CALM      30.49R
CLINTON        FAIR      29  24  82 CALM      30.49R
ELIZABETHTOWN  NOT AVBL
GOLDSBORO      FAIR      29  23  78 CALM      30.46R
GREENVILLE     FAIR      30  23  74 CALM      30.48R
HAVELOCK       CLEAR     37  28  70 MISG      30.46R
KENANSVILLE    FAIR      27  25  93 CALM      30.48R
KINSTON        NOT AVBL
NEW BERN       FAIR      34  25  69 N7        30.47R
RICHLANDS      FAIR      30  26  85 NW3       30.48R
ROCKY MOUNT    FAIR      27  25  92 CALM      30.48R
WASHINGTON     FAIR      31  24  74 N3        30.48R
WHITEVILLE     FAIR      31  26  81 CALM      30.46S

$$

AMZ130-135-150-152-154-156-158-170-250-252-270-ANZ085-086-088-633-658-670-160300-
MARINE OBSERVATIONS

STATION/POSITION TIME  TEMP    WIND        PRES    WAVE   SWELL
                       AIR SEA DIR/SP/G            HT/PER HT/PER
                 (UTC) (F)     (DEG/KT/KT) (MB)    (FT/S) (FT/S)
CHESAPEAKE LIGHT NOT AVBL
64 E VA BEACH    0150   53 66  360/ 16/ 19 1028.8    8/10   7/10
DUCK             0200   34 38  340/ 17/ 19 1030.2
2 E DUCK         0200      40                N/A     6/ 9   2/11
OREGON INLET     0200   36 41  330/  9/ 12 1030.2
13E OREGON INLT  0148      45                N/A     9/10   8/10
HATTERAS CG      0200   37 44  350/ 16/ 20 1029.8
DIAMOND BUOY     0210   44 66  350/ 21/ 27 1029.3
CAPE LOOKOUT     0200          350/ 11/ 13 1030.8
BEAUFORT LAB     0200   38 45  360/ 11/ 14 1030.9
30 SE NEW RVR IN 0208   44 59   30/ 12/ 17 1030.8
30 SE NEW RVR IN 0200      59                N/A     5/11   2/11
27 SE WRIGHTSVLE 0208   45 62   10/ 14/ 19 1030.9
5 SE WRIGHTSVLE  0208   41 47  360/ 12/ 16 1030.8
225 S CAPE HAT   0150   65 70   20/ 16/ 17 1025.4    8/ 8   7/ 8
41 SE CHARLESTON 0210   48 70  360/ 14/ 17 1030.6

$$




USA.gov is the U.S. government's official web portal to all federal, state and local government web resources and services.